When you browse on this site, cookies collect data to enhance your experience and personalize the content and advertising you see.
Visit our Privacy Policy to learn more. By continuing to use the site, you agree to this use of cookies and data.
  • In Latvia
  • List of Countries
  • For 7 days
  • Water Temperature
  • Satellite Maps
  • Weather Map
  • Weather Widgets
  • user-avatar
    Login

    Hourly Weather Tirgul Vertiujeni

    Today, 24 March, Sunday

    Time Temperature Precipitation Wind Pressure Humidity
    00:00 +6°C° 0 mm 1 mps 754 mmHg 60%
    01:00 +5°C° 0 mm 1 mps 754 mmHg 62%
    02:00 +5°C° 0 mm 1 mps 753 mmHg 63%
    03:00 +5°C° 0 mm 1 mps 753 mmHg 64%
    04:00 +4°C° 0 mm 1 mps 753 mmHg 65%
    05:00 +4°C° 0 mm 1 mps 753 mmHg 65%
    06:00 +5°C° 0 mm 1 mps 752 mmHg 61%
    07:00 +6°C° 0 mm 1 mps 752 mmHg 58%
    08:00 +6°C° 0 mm 1 mps 752 mmHg 54%
    09:00 +7°C° 0 mm 2 mps 751 mmHg 47%
    10:00 +9°C° 0 mm 3 mps 751 mmHg 41%
    11:00 +11°C° 0 mm 4 mps 751 mmHg 34%
    12:00 +12°C° 0 mm 4 mps 750 mmHg 33%
    13:00 +13°C° 0 mm 4 mps 750 mmHg 32%
    14:00 +14°C° 0 mm 5 mps 749 mmHg 31%
    15:00 +13°C° 0 mm 4 mps 749 mmHg 36%
    16:00 +13°C° 0 mm 4 mps 749 mmHg 42%
    17:00 +13°C° 0 mm 4 mps 749 mmHg 47%
    18:00 +12°C° 0 mm 3 mps 749 mmHg 53%
    19:00 +12°C° 0 mm 2 mps 749 mmHg 60%
    20:00 +10°C° 0 mm 2 mps 749 mmHg 67%
    21:00 +9°C° 0 mm 2 mps 749 mmHg 69%
    22:00 +8°C° 0 mm 2 mps 749 mmHg 70%
    23:00 +9°C° 0 mm 1 mps 749 mmHg 72%

    Tomorrow, 25 March, Monday

    Time Temperature Precipitation Wind Pressure Humidity
    00:00 +8°C° 0 mm 1 mps 749 mmHg 72%
    01:00 +8°C° 0 mm 1 mps 748 mmHg 72%
    02:00 +6°C° 0 mm 0 mps 748 mmHg 73%
    03:00 +6°C° 0 mm 0 mps 747 mmHg 73%
    04:00 +5°C° 0 mm 0 mps 747 mmHg 74%
    05:00 +6°C° 0 mm 1 mps 746 mmHg 75%
    06:00 +7°C° 0.3 mm 1 mps 746 mmHg 76%
    07:00 +7°C° 0.3 mm 1 mps 745 mmHg 77%
    08:00 +7°C° 0.3 mm 2 mps 745 mmHg 78%
    09:00 +6°C° 1.8 mm 2 mps 745 mmHg 82%
    10:00 +6°C° 1.8 mm 2 mps 744 mmHg 85%
    11:00 +6°C° 1.8 mm 2 mps 744 mmHg 89%
    12:00 +8°C° 0.1 mm 2 mps 744 mmHg 83%
    13:00 +10°C° 0.1 mm 2 mps 743 mmHg 77%
    14:00 +12°C° 0.1 mm 1 mps 743 mmHg 71%
    15:00 +12°C° 0 mm 2 mps 743 mmHg 71%
    16:00 +11°C° 0 mm 3 mps 743 mmHg 71%
    17:00 +11°C° 0 mm 4 mps 742 mmHg 71%
    18:00 +8°C° 0 mm 4 mps 743 mmHg 75%
    19:00 +7°C° 0 mm 4 mps 743 mmHg 80%
    20:00 +6°C° 0 mm 4 mps 743 mmHg 84%
    21:00 +5°C° 0 mm 3 mps 744 mmHg 85%
    22:00 +6°C° 0 mm 2 mps 744 mmHg 87%
    23:00 +6°C° 0 mm 2 mps 744 mmHg 88%

    Day after tomorrow, 26 March, Tuesday

    Time Temperature Precipitation Wind Pressure Humidity
    00:00 +5°C° 0 mm 2 mps 745 mmHg 87%
    01:00 +5°C° 0 mm 2 mps 745 mmHg 86%
    02:00 +5°C° 0 mm 2 mps 745 mmHg 85%
    03:00 +5°C° 0 mm 2 mps 745 mmHg 84%
    04:00 +5°C° 0 mm 2 mps 745 mmHg 83%
    05:00 +5°C° 0 mm 2 mps 745 mmHg 82%
    06:00 +5°C° 0 mm 2 mps 746 mmHg 79%
    07:00 +5°C° 0 mm 3 mps 747 mmHg 76%
    08:00 +5°C° 0 mm 4 mps 747 mmHg 73%
    09:00 +6°C° 0 mm 4 mps 748 mmHg 68%
    10:00 +7°C° 0 mm 5 mps 748 mmHg 63%
    11:00 +8°C° 0 mm 6 mps 748 mmHg 57%
    12:00 +8°C° 0 mm 6 mps 748 mmHg 54%
    13:00 +9°C° 0 mm 6 mps 749 mmHg 50%
    14:00 +10°C° 0 mm 6 mps 749 mmHg 47%
    15:00 +9°C° 0 mm 6 mps 749 mmHg 45%
    16:00 +9°C° 0 mm 6 mps 749 mmHg 44%
    17:00 +9°C° 0 mm 6 mps 749 mmHg 43%
    18:00 +8°C° 0 mm 5 mps 750 mmHg 48%
    19:00 +7°C° 0 mm 5 mps 750 mmHg 52%
    20:00 +5°C° 0 mm 4 mps 751 mmHg 57%
    21:00 +5°C° 0 mm 4 mps 751 mmHg 59%
    22:00 +4°C° 0 mm 3 mps 751 mmHg 60%
    23:00 +3°C° 0 mm 3 mps 751 mmHg 62%

    27 March, Wednesday

    Time Temperature Precipitation Wind Pressure Humidity
    00:00 +3°C° 0 mm 3 mps 751 mmHg 64%
    01:00 +3°C° 0 mm 3 mps 752 mmHg 66%
    02:00 +1°C° 0 mm 4 mps 752 mmHg 68%
    03:00 +1°C° 0 mm 4 mps 752 mmHg 70%
    04:00 +1°C° 0 mm 4 mps 752 mmHg 73%
    05:00 0°C° 0 mm 4 mps 752 mmHg 76%
    06:00 +1°C° 0 mm 4 mps 753 mmHg 72%
    07:00 +1°C° 0 mm 5 mps 753 mmHg 68%
    08:00 +2°C° 0 mm 5 mps 754 mmHg 64%
    09:00 +2°C° 0 mm 5 mps 754 mmHg 54%
    10:00 +3°C° 0 mm 5 mps 755 mmHg 44%
    11:00 +5°C° 0 mm 5 mps 755 mmHg 34%
    12:00 +5°C° 0 mm 5 mps 755 mmHg 30%
    13:00 +6°C° 0 mm 4 mps 755 mmHg 27%
    14:00 +7°C° 0 mm 4 mps 755 mmHg 23%
    15:00 +6°C° 0 mm 4 mps 756 mmHg 24%
    16:00 +6°C° 0 mm 4 mps 756 mmHg 24%
    17:00 +7°C° 0 mm 3 mps 756 mmHg 25%
    18:00 +5°C° 0 mm 3 mps 756 mmHg 29%
    19:00 +6°C° 0 mm 2 mps 757 mmHg 33%
    20:00 +6°C° 0 mm 1 mps 757 mmHg 37%
    21:00 +5°C° 0 mm 1 mps 758 mmHg 38%
    22:00 +5°C° 0 mm 1 mps 758 mmHg 40%
    23:00 +4°C° 0 mm 1 mps 758 mmHg 42%

    28 March, Thursday

    Time Temperature Precipitation Wind Pressure Humidity
    00:00 +4°C° 0 mm 1 mps 758 mmHg 43%
    01:00 +3°C° 0 mm 0 mps 758 mmHg 44%
    02:00 +2°C° 0 mm 0 mps 758 mmHg 45%
    03:00 +2°C° 0 mm 0 mps 758 mmHg 46%
    04:00 +2°C° 0 mm 0 mps 758 mmHg 46%
    05:00 +1°C° 0 mm 0 mps 759 mmHg 47%
    06:00 +2°C° 0 mm 0 mps 759 mmHg 44%
    07:00 +3°C° 0 mm 0 mps 759 mmHg 42%
    08:00 +4°C° 0 mm 0 mps 759 mmHg 39%
    09:00 +6°C° 0 mm 1 mps 759 mmHg 36%
    10:00 +8°C° 0 mm 1 mps 759 mmHg 32%
    11:00 +9°C° 0 mm 1 mps 759 mmHg 28%
    12:00 +10°C° 0 mm 1 mps 759 mmHg 27%
    13:00 +10°C° 0 mm 1 mps 759 mmHg 27%
    14:00 +11°C° 0 mm 1 mps 758 mmHg 26%
    15:00 +11°C° 0 mm 1 mps 758 mmHg 27%
    16:00 +11°C° 0 mm 1 mps 758 mmHg 27%
    17:00 +11°C° 0 mm 1 mps 758 mmHg 28%
    18:00 +10°C° 0 mm 1 mps 758 mmHg 31%
    19:00 +9°C° 0 mm 1 mps 758 mmHg 35%
    20:00 +9°C° 0 mm 1 mps 758 mmHg 38%
    21:00 +8°C° 0 mm 1 mps 758 mmHg 39%
    22:00 +8°C° 0 mm 1 mps 758 mmHg 40%
    23:00 +7°C° 0 mm 1 mps 758 mmHg 42%

    29 March, Friday

    Time Temperature Precipitation Wind Pressure Humidity
    00:00 +7°C° 0 mm 1 mps 758 mmHg 43%
    01:00 +7°C° 0 mm 1 mps 758 mmHg 45%
    02:00 +6°C° 0 mm 1 mps 758 mmHg 46%
    03:00 +6°C° 0 mm 1 mps 758 mmHg 49%
    04:00 +4°C° 0 mm 2 mps 758 mmHg 51%
    05:00 +4°C° 0 mm 2 mps 758 mmHg 54%
    06:00 +5°C° 0 mm 2 mps 758 mmHg 54%
    07:00 +6°C° 0 mm 2 mps 758 mmHg 54%
    08:00 +7°C° 0 mm 2 mps 758 mmHg 54%
    09:00 +8°C° 0 mm 3 mps 758 mmHg 53%
    10:00 +10°C° 0 mm 4 mps 758 mmHg 52%
    11:00 +12°C° 0 mm 4 mps 758 mmHg 51%
    12:00 +12°C° 0 mm 4 mps 757 mmHg 50%
    13:00 +13°C° 0 mm 4 mps 757 mmHg 49%
    14:00 +13°C° 0 mm 4 mps 757 mmHg 48%
    15:00 +13°C° 0 mm 4 mps 756 mmHg 47%
    16:00 +13°C° 0 mm 4 mps 756 mmHg 47%
    17:00 +13°C° 0 mm 4 mps 756 mmHg 47%
    18:00 +12°C° 0 mm 3 mps 756 mmHg 51%
    19:00 +11°C° 0 mm 3 mps 756 mmHg 56%
    20:00 +10°C° 0 mm 2 mps 756 mmHg 61%
    21:00 +9°C° 0 mm 2 mps 756 mmHg 62%
    22:00 +9°C° 0 mm 2 mps 756 mmHg 64%
    23:00 +8°C° 0 mm 2 mps 756 mmHg 66%
    Show more